timestamp,wind_dir_avg,wind_spd_max_dir,wind_spd_avg,wind_spd_gust,battery_voltage,lat,long
2018-01-12 00:00:00+00:00,234.0,231.0,10.32,13.56,,47.59359,-54.27349
2018-01-12 00:10:00+00:00,241.0,241.0,9.59,10.94,,47.59359,-54.27349
2018-01-12 00:20:00+00:00,242.0,242.0,9.93,11.66,,47.59359,-54.27349
2018-01-12 00:30:00+00:00,244.0,242.0,8.65,11.11,,47.59359,-54.27349
2018-01-12 00:40:00+00:00,244.0,241.0,9.84,11.43,,47.59359,-54.27349
2018-01-12 00:50:00+00:00,242.0,243.0,9.07,10.75,,47.59359,-54.27349
2018-01-12 01:00:00+00:00,244.0,245.0,9.62,12.11,,47.59359,-54.27349
2018-01-12 01:10:00+00:00,242.0,240.0,9.66,11.23,,47.59359,-54.27349
2018-01-12 01:20:00+00:00,239.0,239.0,10.12,11.72,,47.59359,-54.27349
2018-01-12 01:30:00+00:00,240.0,241.0,9.37,10.8,,47.59359,-54.27349
2018-01-12 01:40:00+00:00,244.0,245.0,10.25,12.06,,47.59359,-54.27349
2018-01-12 01:50:00+00:00,247.0,250.0,10.94,12.96,,47.59359,-54.27349
2018-01-12 02:00:00+00:00,252.0,254.0,9.85,11.08,,47.59359,-54.27349
2018-01-12 02:10:00+00:00,246.0,248.0,10.42,14.04,,47.59359,-54.27349
2018-01-12 02:20:00+00:00,246.0,254.0,8.87,12.77,,47.59359,-54.27349
2018-01-12 02:30:00+00:00,249.0,249.0,10.33,11.5,,47.59359,-54.27349
2018-01-12 02:40:00+00:00,244.0,251.0,10.17,12.79,,47.59359,-54.27349
2018-01-12 02:50:00+00:00,246.0,242.0,11.22,12.63,,47.59359,-54.27349
2018-01-12 03:00:00+00:00,251.0,247.0,9.99,11.2,,47.59359,-54.27349
2018-01-12 03:10:00+00:00,256.0,256.0,10.04,11.03,,47.59359,-54.27349
2018-01-12 03:20:00+00:00,253.0,251.0,10.13,11.32,,47.59359,-54.27349
2018-01-12 03:30:00+00:00,254.0,255.0,9.87,11.18,,47.59359,-54.27349
2018-01-12 03:40:00+00:00,254.0,258.0,9.48,10.86,,47.59359,-54.27349
2018-01-12 03:50:00+00:00,248.0,256.0,8.98,11.75,,47.59359,-54.27349
2018-01-12 04:00:00+00:00,246.0,241.0,8.48,9.9,,47.59359,-54.27349
2018-01-12 04:10:00+00:00,237.0,233.0,8.43,9.96,,47.59359,-54.27349
2018-01-12 04:20:00+00:00,242.0,249.0,7.61,9.28,,47.59359,-54.27349
2018-01-12 04:30:00+00:00,239.0,234.0,8.33,9.88,,47.59359,-54.27349
2018-01-12 04:40:00+00:00,244.0,245.0,8.82,10.31,,47.59359,-54.27349
2018-01-12 04:50:00+00:00,245.0,250.0,7.69,8.79,,47.59359,-54.27349
2018-01-12 05:00:00+00:00,239.0,240.0,6.99,8.24,,47.59359,-54.27349
2018-01-12 05:10:00+00:00,236.0,243.0,6.75,8.32,,47.59359,-54.27349
2018-01-12 05:20:00+00:00,245.0,248.0,7.61,8.98,,47.59359,-54.27349
2018-01-12 05:30:00+00:00,241.0,242.0,7.11,7.92,,47.59359,-54.27349
2018-01-12 05:40:00+00:00,242.0,243.0,8.25,10.14,,47.59359,-54.27349
2018-01-12 05:50:00+00:00,235.0,238.0,7.68,8.68,,47.59359,-54.27349
2018-01-12 06:00:00+00:00,246.0,253.0,8.0,9.45,,47.59359,-54.27349
2018-01-12 06:10:00+00:00,238.0,238.0,7.02,8.51,,47.59359,-54.27349
2018-01-12 06:20:00+00:00,246.0,245.0,7.71,8.55,,47.59359,-54.27349
2018-01-12 06:30:00+00:00,245.0,237.0,6.4,7.99,,47.59359,-54.27349
2018-01-12 06:40:00+00:00,241.0,242.0,7.48,8.66,,47.59359,-54.27349
2018-01-12 06:50:00+00:00,245.0,247.0,8.74,11.06,,47.59359,-54.27349
2018-01-12 07:00:00+00:00,243.0,245.0,8.79,10.06,,47.59359,-54.27349
2018-01-12 07:10:00+00:00,241.0,246.0,6.78,7.84,,47.59359,-54.27349
2018-01-12 07:20:00+00:00,241.0,243.0,7.02,8.45,,47.59359,-54.27349
2018-01-12 07:30:00+00:00,244.0,248.0,6.81,8.1,,47.59359,-54.27349
2018-01-12 07:40:00+00:00,239.0,241.0,5.99,8.03,,47.59359,-54.27349
2018-01-12 07:50:00+00:00,235.0,234.0,6.92,7.84,,47.59359,-54.27349
2018-01-12 08:00:00+00:00,235.0,238.0,7.45,8.71,,47.59359,-54.27349
2018-01-12 08:10:00+00:00,237.0,240.0,6.71,7.67,,47.59359,-54.27349
2018-01-12 08:20:00+00:00,231.0,231.0,7.34,8.37,,47.59359,-54.27349
2018-01-12 08:30:00+00:00,229.0,235.0,7.46,8.49,,47.59359,-54.27349
2018-01-12 08:40:00+00:00,231.0,229.0,6.77,8.34,,47.59359,-54.27349
2018-01-12 08:50:00+00:00,239.0,236.0,6.77,8.25,,47.59359,-54.27349
2018-01-12 09:00:00+00:00,234.0,232.0,6.29,7.37,,47.59359,-54.27349
2018-01-12 09:10:00+00:00,225.0,225.0,6.05,7.09,,47.59359,-54.27349
2018-01-12 09:20:00+00:00,222.0,223.0,7.17,8.19,,47.59359,-54.27349
2018-01-12 09:30:00+00:00,223.0,222.0,7.15,7.74,,47.59359,-54.27349
2018-01-12 09:40:00+00:00,220.0,219.0,7.41,8.56,,47.59359,-54.27349
2018-01-12 09:50:00+00:00,220.0,222.0,6.62,7.64,,47.59359,-54.27349
2018-01-12 10:00:00+00:00,230.0,231.0,5.95,6.5,,47.59359,-54.27349
2018-01-12 10:10:00+00:00,220.0,220.0,6.21,7.14,,47.59359,-54.27349
2018-01-12 10:20:00+00:00,230.0,233.0,6.46,7.25,,47.59359,-54.27349
2018-01-12 10:30:00+00:00,223.0,225.0,5.65,6.4,,47.59359,-54.27349
2018-01-12 10:40:00+00:00,217.0,222.0,6.14,7.06,,47.59359,-54.27349
2018-01-12 10:50:00+00:00,219.0,221.0,6.32,6.75,,47.59359,-54.27349
2018-01-12 11:00:00+00:00,235.0,235.0,7.02,7.95,,47.59359,-54.27349
2018-01-12 11:10:00+00:00,241.0,247.0,6.24,7.81,,47.59359,-54.27349
2018-01-12 11:20:00+00:00,239.0,234.0,4.68,5.79,,47.59359,-54.27349
2018-01-12 11:30:00+00:00,218.0,219.0,6.13,7.15,,47.59359,-54.27349
2018-01-12 11:40:00+00:00,219.0,213.0,6.41,8.04,,47.59359,-54.27349
2018-01-12 11:50:00+00:00,221.0,228.0,6.74,7.54,,47.59359,-54.27349
2018-01-12 12:00:00+00:00,219.0,220.0,6.28,6.99,,47.59359,-54.27349
2018-01-12 12:10:00+00:00,229.0,234.0,7.6,8.15,,47.59359,-54.27349
2018-01-12 12:20:00+00:00,217.0,218.0,5.63,6.1,,47.59359,-54.27349
2018-01-12 12:30:00+00:00,225.0,220.0,7.0,8.26,,47.59359,-54.27349
2018-01-12 12:40:00+00:00,231.0,232.0,7.91,9.04,,47.59359,-54.27349
2018-01-12 12:50:00+00:00,229.0,231.0,7.04,7.56,,47.59359,-54.27349
2018-01-12 13:00:00+00:00,222.0,221.0,6.09,6.64,,47.59359,-54.27349
2018-01-12 13:10:00+00:00,226.0,231.0,5.38,6.01,,47.59359,-54.27349
2018-01-12 13:20:00+00:00,213.0,217.0,5.28,6.12,,47.59359,-54.27349
2018-01-12 13:30:00+00:00,217.0,220.0,5.03,5.97,,47.59359,-54.27349
2018-01-12 13:40:00+00:00,230.0,242.0,5.53,6.92,,47.59359,-54.27349
2018-01-12 13:50:00+00:00,219.0,221.0,7.89,9.28,,47.59359,-54.27349
2018-01-12 14:00:00+00:00,221.0,222.0,7.56,8.66,,47.59359,-54.27349
2018-01-12 14:10:00+00:00,226.0,228.0,7.46,8.53,,47.59359,-54.27349
2018-01-12 14:20:00+00:00,228.0,233.0,8.19,10.0,,47.59359,-54.27349
2018-01-12 14:30:00+00:00,231.0,233.0,7.7,8.68,,47.59359,-54.27349
2018-01-12 14:40:00+00:00,230.0,231.0,7.72,8.43,,47.59359,-54.27349
2018-01-12 14:50:00+00:00,222.0,222.0,9.65,10.33,,47.59359,-54.27349
2018-01-12 15:00:00+00:00,224.0,223.0,8.52,9.18,,47.59359,-54.27349
2018-01-12 15:10:00+00:00,218.0,219.0,8.85,9.55,,47.59359,-54.27349
2018-01-12 15:20:00+00:00,218.0,218.0,8.15,8.93,,47.59359,-54.27349
2018-01-12 15:30:00+00:00,216.0,214.0,7.61,8.36,,47.59359,-54.27349
2018-01-12 15:40:00+00:00,215.0,216.0,7.05,7.59,,47.59359,-54.27349
2018-01-12 15:50:00+00:00,216.0,216.0,8.05,8.75,,47.59359,-54.27349
2018-01-12 16:00:00+00:00,213.0,212.0,8.53,9.44,,47.59359,-54.27349
2018-01-12 16:10:00+00:00,213.0,213.0,9.6,10.59,,47.59359,-54.27349
2018-01-12 16:20:00+00:00,214.0,217.0,9.91,11.17,,47.59359,-54.27349
2018-01-12 16:30:00+00:00,216.0,218.0,10.46,11.24,,47.59359,-54.27349
2018-01-12 16:40:00+00:00,217.0,216.0,9.48,10.53,,47.59359,-54.27349
2018-01-12 16:50:00+00:00,218.0,219.0,7.97,8.94,,47.59359,-54.27349
2018-01-12 17:00:00+00:00,217.0,217.0,8.1,9.13,,47.59359,-54.27349
2018-01-12 17:10:00+00:00,218.0,217.0,6.73,7.67,,47.59359,-54.27349
2018-01-12 17:20:00+00:00,214.0,216.0,5.95,6.56,,47.59359,-54.27349
2018-01-12 17:30:00+00:00,215.0,213.0,6.99,7.88,,47.59359,-54.27349
2018-01-12 17:40:00+00:00,217.0,215.0,6.64,7.99,,47.59359,-54.27349
2018-01-12 17:50:00+00:00,221.0,221.0,7.26,8.29,,47.59359,-54.27349
2018-01-12 18:00:00+00:00,222.0,219.0,9.8,11.0,,47.59359,-54.27349
2018-01-12 18:10:00+00:00,230.0,234.0,11.27,13.09,,47.59359,-54.27349
2018-01-12 18:20:00+00:00,230.0,227.0,11.17,12.73,,47.59359,-54.27349
2018-01-12 18:30:00+00:00,233.0,238.0,10.6,12.06,,47.59359,-54.27349
2018-01-12 18:40:00+00:00,235.0,235.0,10.08,11.45,,47.59359,-54.27349
2018-01-12 18:50:00+00:00,237.0,232.0,10.2,12.27,,47.59359,-54.27349
2018-01-12 19:00:00+00:00,238.0,234.0,9.94,12.14,,47.59359,-54.27349
2018-01-12 19:10:00+00:00,232.0,228.0,10.89,12.46,,47.59359,-54.27349
2018-01-12 19:20:00+00:00,229.0,230.0,11.71,12.86,,47.59359,-54.27349
2018-01-12 19:30:00+00:00,227.0,227.0,9.65,10.86,,47.59359,-54.27349
2018-01-12 19:40:00+00:00,227.0,230.0,9.63,10.69,,47.59359,-54.27349
2018-01-12 19:50:00+00:00,225.0,224.0,11.85,12.62,,47.59359,-54.27349
2018-01-12 20:00:00+00:00,225.0,221.0,10.86,12.61,,47.59359,-54.27349
2018-01-12 20:10:00+00:00,223.0,227.0,12.6,14.05,,47.59359,-54.27349
2018-01-12 20:20:00+00:00,228.0,225.0,12.09,13.82,,47.59359,-54.27349
2018-01-12 20:30:00+00:00,225.0,234.0,12.28,14.28,,47.59359,-54.27349
2018-01-12 20:40:00+00:00,225.0,226.0,10.73,11.65,,47.59359,-54.27349
2018-01-12 20:50:00+00:00,226.0,225.0,10.39,11.15,,47.59359,-54.27349
2018-01-12 21:00:00+00:00,218.0,220.0,11.22,12.74,,47.59359,-54.27349
2018-01-12 21:10:00+00:00,219.0,218.0,11.47,12.5,,47.59359,-54.27349
2018-01-12 21:20:00+00:00,220.0,216.0,10.42,11.82,,47.59359,-54.27349
2018-01-12 21:30:00+00:00,225.0,231.0,9.25,10.78,,47.59359,-54.27349
2018-01-12 21:40:00+00:00,218.0,218.0,11.11,12.68,,47.59359,-54.27349
2018-01-12 21:50:00+00:00,218.0,219.0,10.28,11.27,,47.59359,-54.27349
2018-01-12 22:00:00+00:00,218.0,219.0,10.28,11.83,,47.59359,-54.27349
2018-01-12 22:10:00+00:00,218.0,217.0,10.46,11.76,,47.59359,-54.27349
2018-01-12 22:20:00+00:00,222.0,226.0,9.84,10.86,,47.59359,-54.27349
2018-01-12 22:30:00+00:00,224.0,231.0,8.06,8.96,,47.59359,-54.27349
2018-01-12 22:40:00+00:00,223.0,224.0,8.52,9.24,,47.59359,-54.27349
2018-01-12 22:50:00+00:00,220.0,219.0,7.74,8.45,,47.59359,-54.27349
2018-01-12 23:00:00+00:00,227.0,224.0,7.01,7.81,,47.59359,-54.27349
2018-01-12 23:10:00+00:00,224.0,226.0,9.1,10.11,,47.59359,-54.27349
2018-01-12 23:20:00+00:00,222.0,225.0,10.01,11.28,,47.59359,-54.27349
2018-01-12 23:30:00+00:00,228.0,228.0,8.56,10.07,,47.59359,-54.27349
2018-01-12 23:40:00+00:00,224.0,229.0,9.58,10.52,,47.59359,-54.27349
2018-01-12 23:50:00+00:00,227.0,228.0,8.93,9.97,,47.59359,-54.27349
